Location: Perry
(30.1170°N, 83.5820°W)
Time: 09:27:23

N. Korean satellite - Visible Passes

Search period start: 22 March 2018 00:00
Search period end: 01 April 2018 00:00
Orbit: 460 x 512 km, 97.2° (Epoch: 21 March)

Date Brightness Start Highest point End Pass type
(mag) Time Alt. Az. Time Alt. Az. Time Alt. Az.
22 Mar 10.4 07:08:15 10° ENE 07:09:36 12° E 07:10:55 10° ESE visible
23 Mar 9.8 20:20:09 10° SW 20:22:47 19° W 20:25:28 10° NW visible
26 Mar 10.5 07:06:45 10° ENE 07:07:44 11° E 07:08:42 10° ESE visible
27 Mar 9.7 20:18:10 10° SW 20:20:55 20° W 20:23:43 10° NW visible
31 Mar 9.7 20:16:08 10° SSW 20:19:00 21° W 20:21:53 10° NW visible
